Location: Freistadt
(48.5112°N, 14.5013°E)
Time: 11:20:09
(UTC+02:00)

PCSat - Pass Details

Date: 02 April 2023
Orbit: 783 x 794 km, 67.1° (Epoch: 29 May)

Event Time Altitude Azimuth Distance (km) Brightness Sun altitude
Rises 21:08:01 0° 320° (NW) 3,297 14.1 -15.7°
Reaches altitude 10° 21:12:16 10° 351° (N) 2,369 12.5 -16.3°
Maximum altitude 21:14:14 12° 13° (NNE) 2,241 12.1 -16.6°
Drops below altitude 10° 21:16:12 10° 34° (NE) 2,369 12.0 -16.9°
Enters shadow 21:19:01 - 58° (ENE) 2,917 12.2 -17.3°
